When you browse on this site, cookies collect data to enhance your experience and personalize the content and advertising you see.
Visit our Privacy Policy to learn more. By continuing to use the site, you agree to this use of cookies and data.
  • In Österreich
  • Länderverzeichnis
  • Für 7 Tage
  • Wassertemperatur
  • Satellitenkarten
  • Wetterkarte
  • News
  • Widgets
  • user-avatar
    Anmelden

    Stündliche Wetter Santaren

    Heute, 25 Mai, Samstag

    Zeit Temperatur Niederschläge Wind Luftdruck Luftfeuchtigkeit
    00:00 +14°C° 0 mm 3 m/S 760 mmHg 77%
    01:00 +14°C° 0 mm 3 m/S 760 mmHg 78%
    02:00 +14°C° 0 mm 2 m/S 760 mmHg 79%
    03:00 +15°C° 0 mm 2 m/S 760 mmHg 73%
    04:00 +15°C° 0 mm 2 m/S 760 mmHg 68%
    05:00 +15°C° 0 mm 2 m/S 761 mmHg 63%
    06:00 +18°C° 0 mm 3 m/S 761 mmHg 53%
    07:00 +21°C° 0 mm 3 m/S 761 mmHg 43%
    08:00 +25°C° 0 mm 4 m/S 762 mmHg 34%
    09:00 +27°C° 0 mm 4 m/S 762 mmHg 30%
    10:00 +28°C° 0 mm 4 m/S 761 mmHg 26%
    11:00 +30°C° 0 mm 4 m/S 761 mmHg 22%
    12:00 +32°C° 0 mm 4 m/S 761 mmHg 22%
    13:00 +32°C° 0 mm 4 m/S 761 mmHg 22%
    14:00 +33°C° 0 mm 4 m/S 760 mmHg 22%
    15:00 +32°C° 0 mm 5 m/S 760 mmHg 27%
    16:00 +29°C° 0 mm 6 m/S 760 mmHg 31%
    17:00 +28°C° 0 mm 6 m/S 760 mmHg 36%
    18:00 +24°C° 0 mm 6 m/S 760 mmHg 43%
    19:00 +22°C° 0 mm 5 m/S 761 mmHg 51%
    20:00 +20°C° 0 mm 5 m/S 761 mmHg 58%
    21:00 +19°C° 0 mm 4 m/S 761 mmHg 63%
    22:00 +18°C° 0 mm 3 m/S 761 mmHg 68%
    23:00 +17°C° 0 mm 3 m/S 761 mmHg 73%

    Morgen, 26 Mai, Sonntag

    Zeit Temperatur Niederschläge Wind Luftdruck Luftfeuchtigkeit
    00:00 +17°C° 0 mm 2 m/S 761 mmHg 76%
    01:00 +16°C° 0 mm 2 m/S 761 mmHg 78%
    02:00 +16°C° 0 mm 2 m/S 760 mmHg 80%
    03:00 +16°C° 0 mm 2 m/S 760 mmHg 77%
    04:00 +17°C° 0 mm 2 m/S 760 mmHg 75%
    05:00 +18°C° 0 mm 1 m/S 760 mmHg 72%
    06:00 +20°C° 0 mm 2 m/S 761 mmHg 59%
    07:00 +24°C° 0 mm 3 m/S 761 mmHg 46%
    08:00 +28°C° 0 mm 3 m/S 761 mmHg 33%
    09:00 +29°C° 0 mm 3 m/S 761 mmHg 30%
    10:00 +31°C° 0 mm 3 m/S 761 mmHg 27%
    11:00 +34°C° 0 mm 4 m/S 761 mmHg 24%
    12:00 +34°C° 0 mm 4 m/S 760 mmHg 24%
    13:00 +34°C° 0 mm 5 m/S 760 mmHg 24%
    14:00 +35°C° 0 mm 5 m/S 760 mmHg 24%
    15:00 +33°C° 0 mm 6 m/S 759 mmHg 28%
    16:00 +30°C° 0 mm 6 m/S 759 mmHg 33%
    17:00 +29°C° 0 mm 7 m/S 759 mmHg 37%
    18:00 +26°C° 0 mm 6 m/S 759 mmHg 45%
    19:00 +23°C° 0 mm 6 m/S 760 mmHg 53%
    20:00 +21°C° 0 mm 5 m/S 760 mmHg 61%
    21:00 +20°C° 0 mm 5 m/S 760 mmHg 65%
    22:00 +19°C° 0 mm 4 m/S 760 mmHg 69%
    23:00 +18°C° 0 mm 4 m/S 760 mmHg 72%

    übermorgen, 27 Mai, Montag

    Zeit Temperatur Niederschläge Wind Luftdruck Luftfeuchtigkeit
    00:00 +18°C° 0 mm 3 m/S 759 mmHg 76%
    01:00 +17°C° 0 mm 3 m/S 759 mmHg 79%
    02:00 +16°C° 0 mm 3 m/S 759 mmHg 83%
    03:00 +16°C° 0 mm 3 m/S 759 mmHg 83%
    04:00 +17°C° 0 mm 2 m/S 759 mmHg 83%
    05:00 +17°C° 0 mm 2 m/S 759 mmHg 84%
    06:00 +19°C° 0 mm 3 m/S 759 mmHg 72%
    07:00 +22°C° 0 mm 3 m/S 759 mmHg 61%
    08:00 +26°C° 0 mm 3 m/S 759 mmHg 49%
    09:00 +28°C° 0 mm 4 m/S 759 mmHg 43%
    10:00 +30°C° 0 mm 4 m/S 759 mmHg 37%
    11:00 +33°C° 0 mm 5 m/S 758 mmHg 31%
    12:00 +32°C° 0 mm 5 m/S 758 mmHg 32%
    13:00 +32°C° 0 mm 6 m/S 757 mmHg 33%
    14:00 +32°C° 0 mm 7 m/S 757 mmHg 34%
    15:00 +29°C° 0 mm 7 m/S 757 mmHg 40%
    16:00 +27°C° 0 mm 7 m/S 757 mmHg 46%
    17:00 +24°C° 0 mm 7 m/S 757 mmHg 52%
    18:00 +22°C° 0 mm 6 m/S 757 mmHg 60%
    19:00 +20°C° 0 mm 5 m/S 757 mmHg 68%
    20:00 +18°C° 0 mm 4 m/S 758 mmHg 75%
    21:00 +18°C° 0 mm 4 m/S 758 mmHg 78%
    22:00 +17°C° 0 mm 4 m/S 757 mmHg 81%
    23:00 +17°C° 0 mm 4 m/S 757 mmHg 84%

    28 Mai, Dienstag

    Zeit Temperatur Niederschläge Wind Luftdruck Luftfeuchtigkeit
    00:00 +16°C° 0 mm 3 m/S 757 mmHg 85%
    01:00 +16°C° 0 mm 3 m/S 757 mmHg 85%
    02:00 +16°C° 0 mm 3 m/S 757 mmHg 86%
    03:00 +16°C° 0 mm 2 m/S 757 mmHg 86%
    04:00 +16°C° 0 mm 2 m/S 757 mmHg 85%
    05:00 +16°C° 0 mm 2 m/S 757 mmHg 85%
    06:00 +20°C° 0 mm 3 m/S 757 mmHg 70%
    07:00 +24°C° 0 mm 3 m/S 757 mmHg 55%
    08:00 +28°C° 0 mm 4 m/S 758 mmHg 41%
    09:00 +30°C° 0 mm 4 m/S 758 mmHg 36%
    10:00 +33°C° 0 mm 3 m/S 758 mmHg 31%
    11:00 +35°C° 0 mm 3 m/S 758 mmHg 27%
    12:00 +35°C° 0 mm 4 m/S 758 mmHg 26%
    13:00 +35°C° 0 mm 5 m/S 757 mmHg 26%
    14:00 +35°C° 0 mm 5 m/S 757 mmHg 25%
    15:00 +34°C° 0 mm 6 m/S 757 mmHg 28%
    16:00 +32°C° 0 mm 6 m/S 757 mmHg 30%
    17:00 +30°C° 0 mm 7 m/S 757 mmHg 33%
    18:00 +28°C° 0 mm 6 m/S 757 mmHg 37%
    19:00 +25°C° 0 mm 5 m/S 758 mmHg 42%
    20:00 +22°C° 0 mm 5 m/S 758 mmHg 46%
    21:00 +21°C° 0 mm 4 m/S 758 mmHg 49%
    22:00 +20°C° 0 mm 3 m/S 759 mmHg 52%
    23:00 +19°C° 0 mm 3 m/S 759 mmHg 55%

    29 Mai, Mittwoch

    Zeit Temperatur Niederschläge Wind Luftdruck Luftfeuchtigkeit
    00:00 +19°C° 0 mm 3 m/S 759 mmHg 55%
    01:00 +18°C° 0 mm 2 m/S 759 mmHg 56%
    02:00 +18°C° 0 mm 2 m/S 759 mmHg 56%
    03:00 +18°C° 0 mm 3 m/S 759 mmHg 54%
    04:00 +18°C° 0 mm 3 m/S 760 mmHg 51%
    05:00 +19°C° 0 mm 4 m/S 760 mmHg 48%
    06:00 +21°C° 0 mm 4 m/S 760 mmHg 42%
    07:00 +23°C° 0 mm 5 m/S 761 mmHg 36%
    08:00 +27°C° 0 mm 5 m/S 761 mmHg 31%
    09:00 +28°C° 0 mm 5 m/S 761 mmHg 26%
    10:00 +30°C° 0 mm 5 m/S 761 mmHg 22%
    11:00 +33°C° 0 mm 5 m/S 761 mmHg 17%
    12:00 +34°C° 0 mm 4 m/S 761 mmHg 15%
    13:00 +35°C° 0 mm 4 m/S 760 mmHg 13%
    14:00 +35°C° 0 mm 4 m/S 760 mmHg 12%
    15:00 +35°C° 0 mm 4 m/S 760 mmHg 13%
    16:00 +34°C° 0 mm 4 m/S 760 mmHg 14%
    17:00 +34°C° 0 mm 4 m/S 760 mmHg 16%
    18:00 +30°C° 0 mm 3 m/S 760 mmHg 21%
    19:00 +27°C° 0 mm 3 m/S 761 mmHg 26%
    20:00 +22°C° 0 mm 3 m/S 761 mmHg 31%
    21:00 +22°C° 0 mm 3 m/S 761 mmHg 31%
    22:00 +21°C° 0 mm 3 m/S 762 mmHg 32%
    23:00 +20°C° 0 mm 3 m/S 762 mmHg 33%

    30 Mai, Donnerstag

    Zeit Temperatur Niederschläge Wind Luftdruck Luftfeuchtigkeit
    00:00 +20°C° 0 mm 3 m/S 762 mmHg 35%
    01:00 +19°C° 0 mm 4 m/S 762 mmHg 36%
    02:00 +19°C° 0 mm 4 m/S 762 mmHg 38%
    03:00 +19°C° 0 mm 4 m/S 762 mmHg 38%
    04:00 +19°C° 0 mm 4 m/S 762 mmHg 39%
    05:00 +19°C° 0 mm 5 m/S 763 mmHg 39%
    06:00 +21°C° 0 mm 5 m/S 763 mmHg 35%
    07:00 +25°C° 0 mm 5 m/S 763 mmHg 31%
    08:00 +27°C° 0 mm 6 m/S 763 mmHg 26%
    09:00 +29°C° 0 mm 5 m/S 763 mmHg 23%
    10:00 +32°C° 0 mm 5 m/S 763 mmHg 19%
    11:00 +34°C° 0 mm 5 m/S 763 mmHg 15%
    12:00 +35°C° 0 mm 4 m/S 762 mmHg 14%
    13:00 +36°C° 0 mm 4 m/S 762 mmHg 13%
    14:00 +36°C° 0 mm 4 m/S 761 mmHg 11%
    15:00 +36°C° 0 mm 4 m/S 761 mmHg 12%
    16:00 +35°C° 0 mm 4 m/S 761 mmHg 13%
    17:00 +35°C° 0 mm 3 m/S 761 mmHg 14%
    18:00 +30°C° 0 mm 3 m/S 761 mmHg 21%
    19:00 +27°C° 0 mm 3 m/S 761 mmHg 27%
    20:00 +24°C° 0 mm 3 m/S 762 mmHg 34%
    21:00 +22°C° 0 mm 3 m/S 762 mmHg 35%
    22:00 +21°C° 0 mm 3 m/S 762 mmHg 36%
    23:00 +20°C° 0 mm 2 m/S 762 mmHg 37%
    Mehr zeigen